Stations météo

Publicité
Ile Rousse, France (7753): Température de l'air & dewpoint: 10.01.2018 20:00:00 - 16.01.2018 20:00:00 (CET)Ile Rousse, France (7753): Vitesse du vent & gusts: 10.01.2018 20:00:00 - 16.01.2018 20:00:00 (CET)Ile Rousse, France (7753): Direction du vent: 10.01.2018 20:00:00 - 16.01.2018 20:00:00 (CET)Ile Rousse, France (7753): reduced air pressure: 10.01.2018 20:00:00 - 16.01.2018 20:00:00 (CET)Ile Rousse, France (7753): visibility: 10.01.2018 20:00:00 - 16.01.2018 20:00:00 (CET)Ile Rousse, France (7753): Quantités de précipitations: 10.01.2018 20:00:00 - 16.01.2018 20:00:00 (CET)
Date & Time tt [°C] td [°C] ff [km/h] ff [knt] fx [km/h] fx [knt] dd ppp [hPa] vv [km] rr [mm]
16.01.2018 20:00:00 14,2 7,9 98 53 167 90 SW 1007,7 - 0,0
16.01.2018 19:00:00 14,1 7,4 88 48 152 82 SW 1008,2 18 0,0
16.01.2018 18:00:00 14,1 7,6 97 53 161 87 SW 1007,5 - 0,0
16.01.2018 17:00:00 14,1 7,6 96 52 152 82 SW 1007,6 - 0,0
16.01.2018 16:00:00 14,3 7,8 94 51 151 82 SW 1008,7 15 0,0
16.01.2018 15:00:00 14,6 7,9 94 51 159 86 SW 1008,9 - 0,0
16.01.2018 14:00:00 14,8 7,3 87 47 153 82 SW 1009,9 - 0,0
16.01.2018 13:00:00 14,5 6,6 94 51 151 81 SW 1011,0 15 0,0
16.01.2018 12:00:00 14,1 6,9 86 46 158 85 SW 1011,5 - 0,0
16.01.2018 11:00:00 14,2 7,0 89 48 141 76 SW 1011,5 - 0,0
16.01.2018 10:00:00 13,0 6,8 83 45 137 74 SW 1012,4 15 0,0
16.01.2018 09:00:00 12,6 5,7 80 43 135 73 SW 1012,6 - 0,0
16.01.2018 08:00:00 12,0 5,6 73 39 125 68 SW 1013,4 - 0,0
16.01.2018 07:00:00 11,3 6,0 60 32 106 57 SW 1014,0 15 0,0
16.01.2018 06:00:00 11,0 5,7 66 36 111 60 SW 1013,9 - 0,0
16.01.2018 05:00:00 11,2 5,3 64 35 114 62 SW 1014,7 - 0,0
16.01.2018 04:00:00 11,1 4,5 73 39 121 66 SW 1015,1 - 0,0
16.01.2018 03:00:00 11,0 5,7 57 31 94 51 WSW 1016,4 - 0,0
16.01.2018 02:00:00 10,9 5,4 58 31 91 49 SW 1017,0 - 0,0
16.01.2018 01:00:00 10,9 5,4 49 26 79 43 SW 1018,1 - 0,0
16.01.2018 00:00:00 11,0 4,9 43 23 76 41 WSW 1018,8 - 0,0
15.01.2018 23:00:00 10,4 5,2 36 20 78 42 SW 1019,3 - 0,0
15.01.2018 22:00:00 10,9 4,4 37 20 67 36 WSW 1019,6 - 0,0
15.01.2018 21:00:00 10,4 4,5 32 17 53 28 SW 1019,5 - 0,0
15.01.2018 20:00:00 10,5 4,2 29 16 56 30 SW 1019,6 - 0,0
15.01.2018 19:00:00 10,5 4,0 29 16 42 23 SW 1019,1 20 0,0
15.01.2018 18:00:00 10,9 4,1 23 13 57 31 SW 1019,8 - 0,0
15.01.2018 17:00:00 11,5 5,1 20 11 48 26 WSW 1020,2 - 0,0
15.01.2018 16:00:00 12,1 5,9 25 13 43 23 W 1019,9 20 0,0
15.01.2018 15:00:00 13,8 6,9 16 9 28 15 W 1019,9 - 0,0
15.01.2018 14:00:00 12,0 5,6 9 5 27 15 WSW 1020,4 - 0,0
15.01.2018 13:00:00 11,9 7,2 16 9 27 14 W 1021,4 18 0,0
15.01.2018 12:00:00 12,0 5,8 14 8 21 12 W 1022,2 - 0,0
15.01.2018 11:00:00 10,9 6,0 4 2 7 4 E 1022,7 - 0,0
15.01.2018 10:00:00 11,1 5,0 0 0 6 3 N 1022,3 18 0,0
15.01.2018 09:00:00 10,0 2,6 2 1 5 3 WSW 1021,6 - 0,0
15.01.2018 08:00:00 9,2 2,7 2 1 8 4 NNW 1021,3 - 0,0
15.01.2018 07:00:00 10,1 1,7 3 1 8 4 S 1020,6 18 0,0
15.01.2018 06:00:00 10,1 2,0 7 4 10 5 S 1020,4 - 0,0
15.01.2018 05:00:00 9,1 3,9 8 4 9 5 ESE 1020,6 - 0,0
15.01.2018 04:00:00 9,2 4,8 3 1 10 6 WNW 1020,9 - 0,0
15.01.2018 03:00:00 9,2 4,8 8 4 11 6 W 1021,1 - 0,0
15.01.2018 02:00:00 9,3 4,3 6 3 8 4 SW 1021,0 - 0,0
15.01.2018 01:00:00 8,7 2,3 0 0 7 4 N 1021,0 - 0,0
15.01.2018 00:00:00 9,0 2,5 4 2 11 6 ESE 1021,1 - 0,0
14.01.2018 23:00:00 9,4 4,6 5 3 8 5 SW 1020,9 - 0,0
14.01.2018 22:00:00 9,7 3,0 2 1 15 8 NNW 1020,6 - 0,0
14.01.2018 21:00:00 10,3 2,9 10 5 15 8 ESE 1020,4 - 0,0
14.01.2018 20:00:00 10,0 3,0 9 5 11 6 ESE 1020,0 - 0,0
14.01.2018 19:00:00 10,0 3,5 9 5 13 7 SSE 1019,6 18 0,0
14.01.2018 18:00:00 10,1 3,6 11 6 15 8 S 1019,2 - 0,0
14.01.2018 17:00:00 10,1 4,0 9 5 16 9 SSE 1019,0 - 0,0
14.01.2018 16:00:00 10,9 3,9 8 4 17 9 ENE 1018,7 18 0,0
14.01.2018 15:00:00 11,0 4,9 8 4 17 9 NNW 1018,6 - 0,0
14.01.2018 14:00:00 11,4 3,7 8 5 14 7 W 1018,4 - 0,0
14.01.2018 13:00:00 11,3 3,8 3 2 6 3 N 1018,5 18 0,0
14.01.2018 12:00:00 10,7 5,9 3 1 8 5 SSE 1019,2 - 0,0
14.01.2018 11:00:00 10,8 6,2 2 1 13 7 W 1019,6 - 0,0
14.01.2018 10:00:00 9,9 5,9 5 3 17 9 WNW 1019,3 - 0,0
14.01.2018 09:00:00 9,4 5,0 9 5 12 7 W 1018,8 - 0,0
14.01.2018 08:00:00 9,5 3,9 5 3 9 5 W 1018,3 - 0,0
14.01.2018 07:00:00 9,8 3,3 5 3 11 6 SSE 1018,2 18 0,0
14.01.2018 06:00:00 9,6 3,3 6 3 8 4 ESE 1018,1 - 0,0
14.01.2018 05:00:00 9,5 3,0 6 3 9 5 ESE 1018,2 - 0,0
14.01.2018 04:00:00 9,9 3,2 6 4 11 6 S 1018,5 15 0,0
14.01.2018 03:00:00 8,8 2,8 10 6 11 6 E 1018,8 - 0,0
14.01.2018 02:00:00 9,5 3,5 2 1 12 7 SW 1019,0 - 0,0
14.01.2018 01:00:00 9,8 1,2 6 4 10 5 WSW 1019,2 - 0,0
14.01.2018 00:00:00 9,6 0,7 3 2 5 3 NNE 1019,5 - 0,0
13.01.2018 23:00:00 9,6 -0,6 2 1 8 4 SE 1019,7 - 0,0
13.01.2018 22:00:00 9,8 1,4 8 4 13 7 SSE 1019,7 - 0,0
13.01.2018 21:00:00 8,8 2,1 10 5 13 7 SE 1019,8 - 0,0
13.01.2018 20:00:00 8,6 2,6 13 7 21 11 ENE 1019,9 - 0,0
13.01.2018 19:00:00 8,8 3,8 16 9 21 11 E 1019,7 20 0,0
13.01.2018 18:00:00 9,4 4,4 17 9 30 16 E 1019,7 - 0,0
13.01.2018 17:00:00 10,4 4,5 20 11 31 17 ENE 1019,5 - 0,0
13.01.2018 16:00:00 11,2 4,6 22 12 33 18 NE 1019,6 20 0,0
13.01.2018 15:00:00 11,1 4,3 22 12 35 19 NNE 1019,4 - 0,0
13.01.2018 14:00:00 11,5 4,0 27 14 36 20 NNE 1019,2 - 0,0
13.01.2018 13:00:00 12,3 3,0 23 12 35 19 NE 1019,9 20 0,0
13.01.2018 12:00:00 12,5 1,8 26 14 36 19 E 1020,4 - 0,0
13.01.2018 11:00:00 11,8 3,8 18 10 29 16 ENE 1020,6 - 0,0
13.01.2018 10:00:00 10,8 1,9 22 12 32 18 E 1020,4 20 0,0
13.01.2018 09:00:00 9,2 1,1 24 13 36 20 E 1020,2 - 0,0
13.01.2018 08:00:00 8,9 1,3 27 14 38 20 E 1019,9 - 0,0
13.01.2018 07:00:00 8,8 1,9 27 14 40 22 E 1019,8 20 0,0
13.01.2018 06:00:00 8,6 2,2 32 17 45 24 E 1019,4 - 0,0
13.01.2018 05:00:00 8,1 2,7 24 13 35 19 E 1019,6 - 0,0
13.01.2018 04:00:00 8,6 2,6 29 15 37 20 E 1019,8 20 0,0
13.01.2018 03:00:00 8,9 3,5 18 10 27 14 ENE 1020,3 - 0,0
13.01.2018 02:00:00 8,3 3,1 21 11 30 16 E 1020,1 - 0,0
13.01.2018 01:00:00 8,9 3,7 19 10 24 13 E 1020,0 - 0,0
13.01.2018 00:00:00 9,1 3,7 19 10 29 15 E 1020,0 - 0,0
12.01.2018 23:00:00 9,6 4,2 18 10 30 16 E 1019,5 - 0,0
12.01.2018 22:00:00 9,9 3,8 24 13 34 19 E 1018,9 - 0,0
12.01.2018 21:00:00 10,1 4,5 26 14 35 19 ENE 1018,8 - 0,0
12.01.2018 20:00:00 10,1 4,2 21 11 31 17 ENE 1018,6 - 0,0
12.01.2018 19:00:00 9,9 3,4 22 12 29 16 E 1018,0 20 0,0
12.01.2018 18:00:00 10,5 3,5 23 13 35 19 E 1017,4 - 0,0
12.01.2018 17:00:00 11,1 4,3 28 15 36 19 E 1017,1 - 0,0
12.01.2018 16:00:00 11,7 4,7 24 13 37 20 E 1016,4 20 0,0
12.01.2018 15:00:00 11,5 4,9 24 13 37 20 ENE 1015,8 - 0,0
12.01.2018 14:00:00 12,4 5,1 28 15 40 21 ENE 1015,3 - 0,0
12.01.2018 13:00:00 12,4 5,5 30 16 43 23 ENE 1015,3 20 0,0
12.01.2018 12:00:00 11,4 5,0 28 15 35 19 E 1015,8 - 0,0
12.01.2018 11:00:00 10,7 4,8 28 15 44 24 E 1016,0 - 0,0
12.01.2018 10:00:00 10,6 4,9 31 17 46 25 E 1015,6 18 0,0
12.01.2018 09:00:00 10,1 4,5 35 19 48 26 E 1014,3 - 0,0
12.01.2018 08:00:00 10,0 4,8 28 15 40 22 E 1013,9 - 0,0
12.01.2018 07:00:00 9,9 5,5 21 11 29 16 E 1013,6 18 0,0
12.01.2018 06:00:00 9,9 5,7 21 11 34 18 E 1013,1 - 0,0
12.01.2018 05:00:00 9,7 6,0 21 11 32 18 E 1012,7 - 0,0
12.01.2018 04:00:00 9,6 6,5 26 14 32 17 E 1012,7 18 0,0
12.01.2018 03:00:00 9,1 6,9 22 12 33 18 E 1012,3 - 0,0
12.01.2018 02:00:00 9,2 7,5 22 12 33 18 E 1011,9 - 0,2
12.01.2018 01:00:00 9,0 7,3 19 10 31 17 E 1011,7 - 0,0
12.01.2018 00:00:00 9,5 7,4 22 12 43 23 E 1011,5 - 0,0
11.01.2018 23:00:00 10,1 7,3 31 17 41 22 ENE 1011,4 - 0,0
11.01.2018 22:00:00 10,1 6,8 29 16 45 25 NE 1011,1 - 0,0
11.01.2018 21:00:00 10,1 6,2 21 11 35 19 E 1010,7 - 0,0
11.01.2018 20:00:00 10,3 6,8 21 11 41 22 E 1010,5 - 0,0
11.01.2018 19:00:00 10,2 7,4 17 9 31 17 E 1009,9 25 0,0
11.01.2018 18:00:00 9,9 7,1 19 10 23 12 E 1009,6 - 0,0
11.01.2018 17:00:00 10,0 6,9 18 10 24 13 ENE 1009,2 - 0,0
11.01.2018 16:00:00 10,8 7,5 18 10 37 20 NE 1008,8 - 0,0
11.01.2018 15:00:00 11,3 5,4 24 13 34 18 NE 1008,3 - 0,0
11.01.2018 14:00:00 11,7 8,5 21 11 29 16 ENE 1008,3 - 0,0
11.01.2018 13:00:00 12,0 8,3 14 8 23 13 ENE 1008,7 - 0,0
11.01.2018 12:00:00 11,6 8,1 11 6 16 9 ENE 1009,2 - 0,0
11.01.2018 11:00:00 11,0 7,1 7 4 11 6 NE 1009,7 - 0,0
11.01.2018 10:00:00 11,4 7,7 4 2 11 6 SE 1009,5 18 0,0
11.01.2018 09:00:00 10,6 7,1 4 2 5 3 ESE 1009,5 - 0,0
11.01.2018 08:00:00 10,3 6,6 4 2 8 4 E 1009,5 - 0,0
11.01.2018 07:00:00 10,5 6,8 4 2 10 5 SSE 1009,5 20 0,0
11.01.2018 06:00:00 10,6 7,1 3 2 6 4 ENE 1009,5 - 0,0
11.01.2018 05:00:00 10,6 7,1 3 2 18 10 SW 1009,7 - 0,0
11.01.2018 04:00:00 10,4 6,7 13 7 24 13 SW 1010,2 - 0,0
11.01.2018 03:00:00 10,7 7,6 6 3 13 7 SSW 1010,7 - 0,0
11.01.2018 02:00:00 11,3 7,4 5 3 14 7 WSW 1010,9 - 0,0
11.01.2018 01:00:00 11,4 5,7 6 3 16 9 SW 1011,2 - 0,0
11.01.2018 00:00:00 11,1 4,8 9 5 13 7 ESE 1011,7 - 0,0
10.01.2018 23:00:00 11,0 4,9 5 3 7 4 ESE 1012,1 - 0,0
10.01.2018 22:00:00 11,1 5,0 2 1 9 5 N 1012,3 - 0,0
10.01.2018 21:00:00 11,0 5,3 7 4 9 5 ESE 1012,5 - 0,0
10.01.2018 20:00:00 10,9 5,4 2 1 15 8 NNE 1013,0 - 0,0

tt = Température de l'air
td = dewpoint
ff = Vitesse du vent
fx = gusts
dd = Direction du vent
ppp = reduced air pressure
vv = visibility
rr = Quantités de précipitations

stations d'obs. à proximité